STARLINK-6217, 57058

Orbit data source: Space-Track

STARLINK-6217, 57058 is a payload satellite owned by SpaceX/Seattle (US) in LEO that was launched on Thu, 22 Jun 2023 UTC via an FALCON 9 launch vehicle from the Air Force Western Test Range (AFWTR). Payload-class satellites include a variety of spacecraft equipped with specific instruments for various scientific and technological missions. These include communications satellites like Starlink; space stations such as the ISS; scientific satellites like the Hubble; Earth observation satellites from companies like Planet Labs, Umbra, and HawkEye 360; GPS; miniature CubeSats for education and research; and military/defense satellites.

Loading next visibility...
Identifier
57058, 2023-088L
Orbit
LEO
Country
Flag of USUS
Related business
Manufacturer
SpaceX/Seattle
Mission
Operational Commercial Communications
Bus & Motor
STARLINK, Unknown motor
Mass
305 kg wet, ~290 kg dry
Launch date (UTC)
Icon of a cake. It is the launch day of the satellite!2023-06-22 (3 years ago)
Launch vehicle
FALCON 9
Launch site
Air Force Western Test Range (AFWTR)
Object type
Payload
Rocket body
Debris
Shape & HBR
Box + 1 Pan, 10.1 m
Radar Cross Section
11.087 m², Large (>1 m²)

Expand to show TLE details & history
Last TLE update: 3 days ago

TLE from 3 days ago
0 STARLINK-6217
1 57058U 23088L   26170.67292535  .00000380  00000-0  23341-4 0  9999
2 57058  43.0018 254.3598 0001280 274.8301  85.2404 15.27579837165936
Epoch: 2026-06-19T16:09Z
TLE epoch observation values (Epoch: 2026-06-19T16:09:00.750Z)
Latitude
-0.00004°
Longitude
104.2081°
Altitude
482.752 km
Speed
7.626 km/s
True Right ascension
16h 57m 26s
True Declination
0° 00' 00"
Sunlit
Object was in full shadow at epoch
Visualization orbit readout
Latitude
Unknown
Longitude
Unknown
Altitude
Unknown
Speed
Unknown
Apparent Right ascension
Unknown
Apparent Declination
Unknown
Sunlit
N/A
Visualization observer readout
Local Sidereal Time
21:32:55
Azimuth
Unknown
Elevation
Unknown
Doppler factor
Unknown
Orbital elements
Apogee altitude
485.873 km
Perigee altitude
484.116 km
Semi-major axis
6,863.131 km
Eccentricity
0.00013
Inclination
43.0018°
RAAN
254.3598°
Arg. of periapsis
274.8301°
True anomaly
85.25502°
Mean anomaly
85.2404°
Eccentric anomaly
85.24771°
Mean motion
3.81733 °/min
Orbital period
94.31 mins
BSTAR
0.000023341
Loading maneuver chart data...
Computing Atmospheric mass density...
Loading historical data...
Loading historical data...
Loading historical data...
Loading historical data...
Loading historical data...
Loading historical data...
Loading historical data...

Documentation

Showing up to 5 results
|